Wind_Speed
22 22 23 23 25 27 27 28 35 38 51 52 47 43 40 37 34 31 28 29 31 31 30 30 28 31 32 31 30 29 29 25
22 23 22 24 26 26 30 32 34 42 49 56 51 48 42 37 34 29 23 23 23 25 29 30 30 30 33 31 30 32 30 25
24 21 23 26 29 30 31 35 35 42 46 52 50 48 44 36 31 26 25 26 21 22 24 27 29 30 32 33 35 34 30 29
32 34 36 38 32 28 31 32 35 43 48 50 43 39 33 31 32 30 34 30 29 24 25 27 27 29 34 37 37 32 31 32
36 35 35 33 32 29 30 25 28 36 42 43 40 37 31 26 32 26 36 29 30 27 27 28 29 30 35 37 36 36 35 32
36 35 30 26 26 25 24 19 20 26 26 27 19 22 28 33 31 29 32 30 28 28 30 33 33 34 35 36 34 37 38 35
36 33 31 28 23 19 18 22 21 19 20 20 27 24 29 25 27 29 29 26 25 26 28 32 35 37 37 37 34 33 35 37
33 32 25 16 20 22 21 20 25 25 19 13 9 11 13 16 16 20 21 24 28 31 31 30 33 34 35 36 37 35 34 41
38 28 15 23 21 20 25 24 23 20 19 15 4 6 8 12 12 14 17 23 29 29 27 29 29 30 32 33 35 35 36 36
36 10 16 23 20 19 20 20 20 22 20 15 13 7 4 6 7 9 12 14 18 23 23 25 28 29 32 33 35 34 34 35
38 23 22 26 29 27 23 23 21 20 16 14 13 4 1 3 4 8 12 14 16 20 21 23 25 27 27 30 33 32 33 33
37 29 29 24 28 25 22 21 20 19 15 6 7 4 4 3 7 9 11 13 16 18 19 23 27 25 28 30 31 33 34 34
29 31 34 31 30 29 24 22 21 18 12 9 7 6 6 8 8 10 13 13 14 18 18 21 22 25 28 31 34 33 35 37
25 34 34 34 36 34 31 25 23 15 11 10 8 8 10 10 11 13 13 13 13 14 20 20 17 23 22 26 30 27 32 36
29 33 35 35 36 34 33 28 24 18 13 12 13 12 13 13 14 14 15 16 16 16 16 22 22 20 24 24 28 32 27 30
29 31 34 30 32 33 27 27 26 22 19 16 15 15 15 15 15 15 15 16 16 18 19 18 21 22 21 24 26 32 33 30
26 28 28 30 33 33 29 26 25 23 21 19 17 17 17 17 18 18 18 18 17 18 18 19 20 23 22 23 26 28 36 35
27 31 35 33 35 34 33 32 28 25 24 21 19 18 18 18 17 18 19 19 20 19 18 17 18 22 26 23 26 27 33 39
27 30 29 28 29 28 27 26 27 26 25 24 22 21 20 20 21 20 18 19 21 22 20 18 19 18 23 26 25 28 33 31
Wind_Direction
297 286 282 284 284 279 276 283 258 249 237 237 235 235 235 235 235 236 236 236 238 238 239 238 234 231 234 233 233 231 229 224
300 297 285 292 296 284 283 280 265 244 234 231 233 233 233 231 228 224 228 233 234 240 240 238 235 233 235 236 236 233 228 220
304 305 296 295 293 284 282 274 258 234 241 234 234 235 234 234 231 229 235 228 233 234 234 236 238 237 234 234 235 232 226 224
313 310 308 306 297 281 276 270 249 231 232 226 227 231 236 236 238 234 238 225 233 231 230 230 234 237 238 238 238 235 227 231
310 307 302 297 292 282 268 259 239 225 224 222 223 219 222 229 240 245 251 243 240 237 238 238 240 240 244 247 250 241 233 229
307 304 302 310 268 259 241 232 218 217 217 213 222 235 252 229 224 231 237 244 245 243 243 244 245 245 246 247 250 243 237 229
312 305 295 300 218 190 169 175 160 163 178 183 207 208 215 217 220 231 235 236 239 239 246 249 246 246 246 247 248 245 243 230
323 304 289 253 193 179 169 165 154 163 160 181 193 203 221 229 226 235 239 238 240 242 246 249 247 245 247 248 245 243 244 235
344 313 267 205 185 169 170 161 146 142 144 159 152 194 223 238 240 244 243 243 239 240 240 241 245 246 249 247 244 244 245 243
350 359 163 151 139 121 119 123 119 122 126 134 157 187 188 258 260 266 257 250 248 248 244 235 235 239 246 247 241 242 244 240
1 36 104 123 121 117 112 109 111 105 97 102 125 139 136 344 304 275 266 258 252 252 249 243 241 239 239 242 245 246 244 243
24 38 28 58 104 102 89 84 92 105 105 102 95 59 31 316 295 289 281 271 261 257 255 249 243 244 242 241 241 247 247 246
22 24 24 10 55 76 64 67 62 75 73 48 41 7 335 319 301 281 277 283 280 268 263 256 248 243 243 243 244 247 243 241
25 22 24 10 23 46 46 39 41 49 47 34 9 355 331 319 307 297 299 289 282 271 260 255 256 241 248 251 238 242 242 239
17 14 19 9 8 27 25 20 17 17 17 5 356 339 328 319 313 309 304 294 290 280 277 260 253 254 248 249 245 240 241 242
12 9 5 359 357 13 12 4 0 1 2 355 343 336 327 321 319 317 311 303 293 286 284 284 263 255 258 249 244 244 236 238
0 359 358 349 350 0 4 0 360 357 355 349 343 332 326 323 327 328 320 313 303 292 281 288 279 261 255 265 256 249 244 237
356 353 351 348 349 355 357 353 353 355 350 345 341 334 328 328 327 326 322 320 313 303 295 285 284 268 255 257 256 255 251 246
353 351 350 348 348 352 352 351 350 351 347 344 342 340 339 337 335 331 326 322 319 313 304 296 288 279 268 251 251 261 251 251
Height
1448 1448 1449 1449 1449 1449 1449 1448 1448 1450 1455 1459 1462 1465 1468 1471 1474 1478 1481 1483 1487 1489 1492 1496 1501 1505 1507 1509 1512 1516 1517 1522
1442 1440 1441 1440 1440 1439 1439 1438 1439 1439 1442 1446 1452 1455 1459 1463 1467 1472 1476 1479 1480 1483 1486 1489 1494 1497 1501 1505 1508 1510 1512 1516
1436 1435 1433 1432 1430 1428 1427 1428 1427 1429 1434 1438 1444 1448 1453 1458 1463 1468 1472 1474 1473 1475 1480 1482 1487 1492 1495 1497 1499 1503 1506 1510
1431 1427 1425 1423 1421 1418 1417 1416 1415 1417 1423 1429 1436 1443 1451 1456 1461 1462 1467 1465 1468 1470 1473 1475 1479 1484 1489 1490 1491 1496 1498 1503
1426 1423 1420 1416 1413 1410 1410 1407 1406 1410 1416 1425 1427 1433 1443 1448 1458 1456 1465 1465 1465 1466 1468 1471 1473 1476 1480 1483 1486 1489 1491 1494
1425 1420 1415 1411 1410 1406 1405 1401 1404 1409 1414 1420 1429 1435 1441 1441 1447 1449 1454 1457 1459 1462 1464 1464 1466 1468 1472 1475 1478 1481 1483 1487
1420 1414 1409 1405 1406 1406 1406 1400 1401 1409 1414 1418 1426 1432 1434 1436 1438 1442 1445 1448 1452 1454 1456 1457 1459 1460 1464 1468 1472 1474 1476 1481
1417 1407 1404 1403 1405 1404 1406 1407 1404 1406 1409 1419 1429 1427 1431 1435 1434 1436 1438 1440 1443 1446 1449 1450 1451 1453 1456 1460 1463 1466 1469 1472
1415 1401 1398 1401 1405 1405 1404 1408 1407 1408 1409 1415 1424 1430 1432 1434 1431 1430 1432 1435 1437 1440 1440 1443 1445 1447 1450 1453 1456 1459 1461 1465
1416 1404 1398 1400 1402 1407 1408 1408 1410 1407 1410 1415 1421 1433 1429 1431 1427 1426 1427 1430 1431 1432 1433 1436 1438 1440 1442 1446 1448 1451 1453 1457
1418 1413 1406 1402 1400 1406 1410 1411 1415 1411 1414 1419 1422 1427 1427 1424 1424 1424 1425 1426 1426 1427 1428 1430 1431 1433 1435 1438 1441 1443 1447 1449
1428 1421 1419 1417 1407 1409 1413 1413 1413 1412 1416 1424 1420 1421 1419 1422 1423 1422 1422 1421 1421 1422 1422 1423 1424 1426 1428 1430 1433 1435 1437 1441
1433 1430 1417 1420 1413 1408 1413 1413 1413 1413 1417 1419 1417 1420 1420 1421 1422 1420 1419 1416 1415 1414 1415 1416 1417 1419 1422 1423 1425 1426 1430 1432
1432 1428 1422 1420 1417 1408 1410 1412 1414 1416 1416 1417 1419 1417 1419 1418 1418 1417 1415 1412 1411 1410 1411 1411 1410 1412 1413 1415 1417 1419 1422 1425
1437 1435 1422 1417 1419 1409 1413 1414 1414 1417 1414 1415 1413 1415 1416 1415 1413 1410 1408 1407 1405 1405 1405 1405 1405 1405 1406 1408 1410 1413 1415 1418
1444 1439 1431 1432 1430 1416 1418 1418 1419 1416 1411 1412 1414 1413 1412 1411 1409 1406 1404 1403 1400 1399 1398 1396 1396 1398 1399 1401 1403 1405 1409 1411
1447 1444 1441 1437 1432 1425 1421 1422 1420 1415 1413 1412 1409 1409 1407 1405 1402 1400 1398 1395 1394 1393 1392 1390 1390 1391 1392 1395 1396 1397 1400 1404
1449 1443 1434 1433 1426 1419 1415 1417 1417 1413 1412 1410 1406 1405 1404 1401 1397 1395 1392 1391 1389 1387 1386 1384 1383 1384 1385 1387 1389 1390 1392 1393
1454 1449 1445 1440 1433 1427 1424 1421 1418 1414 1411 1407 1405 1401 1398 1396 1393 1390 1388 1385 1383 1381 1380 1378 1377 1377 1377 1379 1381 1382 1384 1386